| time (UTC) | temp C | wind direction | speed KPH | gust KPH | rain 1hr cm | rain 24hr cm | rain mn cm | humidity % | barometer mb |
| 20260507210251 | 20 | 324 | 9.7 | 19.3 | 0.00 | 0.08 | 0.08 | 24 | 1014.1 |
| 20260507205747 | 20 | 297 | 17.7 | 29.0 | 0.00 | 0.08 | 0.08 | 24 | 1014.0 |
| 20260507205244 | 20 | 244 | 8.0 | 32.2 | 0.00 | 0.08 | 0.08 | 23 | 1014.2 |
| 20260507204741 | 20 | 328 | 4.8 | 29.0 | 0.00 | 0.08 | 0.08 | 25 | 1014.3 |
| 20260507204239 | 20 | 261 | 22.5 | 30.6 | 0.00 | 0.08 | 0.08 | 24 | 1014.1 |
| 20260507203736 | 20 | 341 | 14.5 | 43.5 | 0.00 | 0.08 | 0.08 | 24 | 1014.2 |
| 20260507203233 | 20 | 296 | 19.3 | 37.0 | 0.00 | 0.08 | 0.08 | 24 | 1014.2 |
| 20260507202730 | 20 | 275 | 6.4 | 29.0 | 0.00 | 0.08 | 0.08 | 26 | 1014.4 |
| 20260507202226 | 20 | 3 | 12.9 | 24.1 | 0.00 | 0.08 | 0.08 | 25 | 1014.4 |
| 20260507201721 | 19 | 294 | 19.3 | 33.8 | 0.00 | 0.08 | 0.08 | 26 | 1014.5 |
| 20260507201218 | 19 | 267 | 17.7 | 27.4 | 0.00 | 0.08 | 0.08 | 26 | 1014.7 |
| 20260507200714 | 19 | 328 | 12.9 | 29.0 | 0.00 | 0.08 | 0.08 | 26 | 1014.7 |
| 20260507200210 | 20 | 318 | 4.8 | 29.0 | 0.00 | 0.08 | 0.08 | 27 | 1014.8 |
| 20260507195707 | 19 | 351 | 6.4 | 37.0 | 0.00 | 0.08 | 0.08 | 25 | 1014.7 |
| 20260507195204 | 19 | 324 | 17.7 | 37.0 | 0.00 | 0.08 | 0.08 | 26 | 1015.0 |
| 20260507194701 | 19 | 243 | 3.2 | 29.0 | 0.00 | 0.08 | 0.08 | 28 | 1015.0 |
| 20260507194156 | 19 | 339 | 19.3 | 43.5 | 0.00 | 0.08 | 0.08 | 26 | 1015.0 |
| 20260507193654 | 20 | 351 | 12.9 | 35.4 | 0.00 | 0.08 | 0.08 | 25 | 1014.9 |
| 20260507193151 | 18 | 255 | 14.5 | 46.7 | 0.00 | 0.08 | 0.08 | 28 | 1014.9 |
| 20260507192646 | 18 | 242 | 14.5 | 40.2 | 0.00 | 0.08 | 0.08 | 28 | 1015.0 |
| 20260507192144 | 18 | 265 | 22.5 | 40.2 | 0.00 | 0.08 | 0.08 | 28 | 1015.4 |
| 20260507191639 | 19 | 291 | 12.9 | 30.6 | 0.00 | 0.08 | 0.08 | 26 | 1015.5 |
| 20260507191136 | 19 | 231 | 16.1 | 24.1 | 0.00 | 0.08 | 0.08 | 27 | 1015.4 |
| 20260507190633 | 18 | 349 | 8.0 | 24.1 | 0.00 | 0.08 | 0.08 | 28 | 1015.4 |
| 20260507190132 | 18 | 335 | 8.0 | 24.1 | 0.00 | 0.08 | 0.08 | 29 | 1015.3 |
| 20260507185630 | 18 | 0 | 4.8 | 16.1 | 0.00 | 0.08 | 0.08 | 30 | 1015.6 |
| 20260507185126 | 18 | 270 | 14.5 | 14.5 | 0.00 | 0.08 | 0.08 | 30 | 1015.5 |
| 20260507184624 | 17 | 3 | 3.2 | 30.6 | 0.00 | 0.08 | 0.08 | 32 | 1015.7 |
| 20260507184122 | 17 | 281 | 6.4 | 24.1 | 0.00 | 0.08 | 0.08 | 30 | 1015.6 |
| 20260507183618 | 17 | 250 | 12.9 | 20.9 | 0.00 | 0.08 | 0.08 | 30 | 1015.6 |
| 20260507183115 | 17 | 238 | 9.7 | 20.9 | 0.00 | 0.08 | 0.08 | 30 | 1015.7 |
| 20260507182611 | 17 | 270 | 4.8 | 12.9 | 0.00 | 0.08 | 0.08 | 31 | 1015.7 |
| 20260507182107 | 17 | 339 | 9.7 | 16.1 | 0.00 | 0.08 | 0.08 | 31 | 1015.8 |
| 20260507181605 | 17 | 228 | 11.3 | 20.9 | 0.00 | 0.08 | 0.08 | 29 | 1015.8 |
| 20260507181101 | 17 | 300 | 16.1 | 24.1 | 0.00 | 0.08 | 0.08 | 30 | 1015.6 |
| 20260507180558 | 17 | 226 | 11.3 | 17.7 | 0.00 | 0.08 | 0.08 | 31 | 1015.6 |
| 20260507180054 | 17 | 272 | 9.7 | 12.9 | 0.00 | 0.08 | 0.08 | 32 | 1015.7 |
| 20260507175550 | 17 | 202 | 19.3 | 19.3 | 0.00 | 0.08 | 0.08 | 33 | 1015.8 |
| 20260507175048 | 17 | 209 | 14.5 | 20.9 | 0.00 | 0.08 | 0.08 | 32 | 1016.0 |
| 20260507174545 | 17 | 229 | 14.5 | 14.5 | 0.00 | 0.08 | 0.08 | 31 | 1016.0 |
| 20260507174043 | 16 | 220 | 8.0 | 20.9 | 0.00 | 0.08 | 0.08 | 32 | 1016.1 |
| 20260507173539 | 17 | 223 | 9.7 | 17.7 | 0.00 | 0.08 | 0.08 | 31 | 1016.0 |
| 20260507173037 | 17 | 241 | 3.2 | 14.5 | 0.00 | 0.08 | 0.08 | 32 | 1016.0 |
| 20260507172532 | 17 | 180 | 6.4 | 14.5 | 0.00 | 0.08 | 0.08 | 32 | 1016.0 |
| 20260507172029 | 17 | 223 | 14.5 | 24.1 | 0.00 | 0.08 | 0.08 | 32 | 1015.8 |
| 20260507171525 | 16 | 254 | 9.7 | 9.7 | 0.00 | 0.08 | 0.08 | 34 | 1016.0 |
| 20260507171023 | 16 | 157 | 4.8 | 9.7 | 0.00 | 0.08 | 0.08 | 34 | 1016.0 |
| 20260507170519 | 16 | 232 | 0.0 | 16.1 | 0.00 | 0.08 | 0.08 | 35 | 1016.1 |
| 20260507170016 | 16 | 230 | 6.4 | 14.5 | 0.00 | 0.08 | 0.08 | 35 | 1016.3 |
| 20260507165512 | 15 | 231 | 16.1 | 22.5 | 0.00 | 0.08 | 0.08 | 36 | 1016.3 |
| 20260507165009 | 16 | 229 | 4.8 | 14.5 | 0.00 | 0.08 | 0.08 | 36 | 1016.1 |
| 20260507164505 | 15 | 220 | 8.0 | 20.9 | 0.00 | 0.08 | 0.08 | 37 | 1016.4 |
| 20260507164002 | 16 | 230 | 12.9 | 17.7 | 0.00 | 0.08 | 0.08 | 35 | 1016.3 |
| 20260507163459 | 16 | 199 | 11.3 | 17.7 | 0.00 | 0.08 | 0.08 | 36 | 1016.1 |
| 20260507162956 | 15 | 225 | 6.4 | 19.3 | 0.00 | 0.08 | 0.08 | 37 | 1016.4 |
| 20260507162451 | 16 | 166 | 9.7 | 12.9 | 0.00 | 0.08 | 0.08 | 35 | 1016.4 |
| 20260507161948 | 15 | 199 | 4.8 | 14.5 | 0.00 | 0.08 | 0.08 | 36 | 1016.4 |
| 20260507161444 | 15 | 222 | 14.5 | 16.1 | 0.00 | 0.08 | 0.08 | 36 | 1016.7 |
| 20260507160942 | 14 | 231 | 6.4 | 14.5 | 0.00 | 0.08 | 0.08 | 38 | 1016.8 |
| 20260507160437 | 15 | 223 | 12.9 | 19.3 | 0.00 | 0.08 | 0.08 | 36 | 1016.7 |
| 20260507155933 | 14 | 235 | 11.3 | 12.9 | 0.00 | 0.08 | 0.08 | 36 | 1016.7 |
| 20260507155430 | 14 | 195 | 8.0 | 14.5 | 0.05 | 0.08 | 0.08 | 37 | 1016.8 |
| 20260507154927 | 14 | 183 | 11.3 | 11.3 | 0.00 | 0.08 | 0.08 | 38 | 1017.0 |
| 20260507154423 | 13 | 174 | 14.5 | 14.5 | 0.00 | 0.08 | 0.08 | 38 | 1016.8 |
| 20260507153921 | 13 | 180 | 12.9 | 16.1 | 0.05 | 0.08 | 0.08 | 38 | 1017.0 |
| 20260507153417 | 13 | 213 | 9.7 | 17.7 | 0.05 | 0.08 | 0.08 | 38 | 1016.7 |
| 20260507152914 | 13 | 192 | 4.8 | 11.3 | 0.00 | 0.05 | 0.05 | 39 | 1016.7 |
| 20260507152410 | 13 | 158 | 8.0 | 9.7 | 0.00 | 0.05 | 0.05 | 39 | 1016.7 |
| 20260507151906 | 12 | 229 | 4.8 | 12.9 | 0.05 | 0.05 | 0.05 | 40 | 1017.1 |
| 20260507151403 | 12 | 153 | 6.4 | 12.9 | 0.05 | 0.05 | 0.05 | 39 | 1016.8 |
| 20260507150900 | 12 | 160 | 4.8 | 14.5 | 0.00 | 0.05 | 0.05 | 38 | 1016.8 |
| 20260507150356 | 12 | 190 | 8.0 | 11.3 | 0.00 | 0.05 | 0.05 | 40 | 1016.9 |
| 20260507145852 | 11 | 163 | 11.3 | 11.3 | 0.05 | 0.05 | 0.05 | 40 | 1016.8 |
| 20260507145349 | 11 | 221 | 3.2 | 14.5 | 0.05 | 0.05 | 0.05 | 40 | 1017.0 |
| 20260507144846 | 11 | 168 | 6.4 | 14.5 | 0.00 | 0.05 | 0.05 | 41 | 1017.1 |
| 20260507144343 | 11 | 194 | 6.4 | 12.9 | 0.05 | 0.05 | 0.05 | 40 | 1017.0 |
| 20260507143840 | 11 | 180 | 4.8 | 14.5 | 0.05 | 0.05 | 0.05 | 40 | 1017.0 |
| 20260507143337 | 10 | 204 | 8.0 | 14.5 | 0.00 | 0.03 | 0.03 | 41 | 1016.8 |
| 20260507142833 | 10 | 220 | 4.8 | 11.3 | 0.05 | 0.03 | 0.03 | 43 | 1017.0 |
| 20260507142329 | 10 | 229 | 8.0 | 11.3 | 0.05 | 0.03 | 0.03 | 43 | 1017.0 |
| 20260507141826 | 10 | 147 | 11.3 | 19.3 | 0.00 | 0.03 | 0.03 | 43 | 1016.7 |
| 20260507141323 | 9 | 201 | 4.8 | 12.9 | 0.00 | 0.03 | 0.03 | 43 | 1016.7 |
| 20260507140819 | 9 | 200 | 4.8 | 14.5 | 0.05 | 0.03 | 0.03 | 44 | 1016.8 |
| 20260507140316 | 8 | 179 | 6.4 | 17.7 | 0.05 | 0.03 | 0.03 | 44 | 1016.7 |
| 20260507135814 | 8 | 202 | 8.0 | 14.5 | 0.00 | 0.00 | 0.00 | 45 | 1017.0 |
| 20260507135311 | 8 | 167 | 6.4 | 16.1 | 0.00 | 0.00 | 0.00 | 45 | 1016.9 |
| 20260507134808 | 8 | 214 | 9.7 | 22.5 | 0.05 | 0.00 | 0.00 | 46 | 1016.8 |
| 20260507134304 | 8 | 253 | 6.4 | 11.3 | 0.05 | 0.00 | 0.00 | 46 | 1016.8 |
| 20260507133800 | 7 | 243 | 4.8 | 14.5 | 0.00 | 0.00 | 0.00 | 46 | 1016.9 |
| 20260507133256 | 7 | 213 | 4.8 | 9.7 | 0.00 | 0.00 | 0.00 | 47 | 1016.8 |
| 20260507132754 | 7 | 178 | 4.8 | 12.9 | 0.00 | 0.00 | 0.00 | 47 | 1016.7 |
| 20260507132251 | 7 | 184 | 9.7 | 12.9 | 0.00 | 0.00 | 0.00 | 47 | 1016.7 |
| 20260507131748 | 7 | 181 | 6.4 | 12.9 | 0.00 | 0.00 | 0.00 | 47 | 1016.8 |
| 20260507131244 | 7 | 176 | 6.4 | 16.1 | 0.00 | 0.00 | 0.00 | 48 | 1016.7 |
| 20260507130741 | 6 | 180 | 4.8 | 12.9 | 0.00 | 0.00 | 0.00 | 49 | 1016.8 |
| 20260507130239 | 6 | 190 | 9.7 | 11.3 | 0.00 | 0.00 | 0.00 | 49 | 1016.5 |
| 20260507125737 | 6 | 178 | 9.7 | 11.3 | 0.00 | 0.00 | 0.00 | 49 | 1016.5 |
| 20260507125235 | 6 | 194 | 4.8 | 19.3 | 0.00 | 0.00 | 0.00 | 49 | 1016.8 |
| 20260507124731 | 6 | 196 | 11.3 | 14.5 | 0.00 | 0.00 | 0.00 | 49 | 1016.2 |
| 20260507124228 | 6 | 180 | 8.0 | 14.5 | 0.00 | 0.00 | 0.00 | 49 | 1016.2 |
| 20260507123727 | 5 | 196 | 4.8 | 11.3 | 0.00 | 0.00 | 0.00 | 50 | 1016.1 |
| 20260507123224 | 5 | 146 | 3.2 | 19.3 | 0.00 | 0.00 | 0.00 | 51 | 1016.2 |
| 20260507122719 | 5 | 180 | 8.0 | 12.9 | 0.00 | 0.00 | 0.00 | 53 | 1016.1 |
| 20260507122215 | 5 | 188 | 6.4 | 12.9 | 0.00 | 0.00 | 0.00 | 52 | 1016.3 |
| 20260507121710 | 4 | 199 | 9.7 | 14.5 | 0.00 | 0.00 | 0.00 | 53 | 1016.0 |
| 20260507121207 | 4 | 216 | 3.2 | 11.3 | 0.00 | 0.00 | 0.00 | 53 | 1016.3 |
| 20260507120703 | 4 | 191 | 3.2 | 12.9 | 0.00 | 0.00 | 0.00 | 53 | 1016.4 |
| 20260507120200 | 4 | 218 | 8.0 | 14.5 | 0.00 | 0.00 | 0.00 | 53 | 1016.4 |
| 20260507115656 | 4 | 169 | 11.3 | 17.7 | 0.00 | 0.00 | 0.00 | 52 | 1016.2 |
| 20260507115152 | 4 | 230 | 4.8 | 14.5 | 0.00 | 0.00 | 0.00 | 53 | 1016.3 |
| 20260507114648 | 4 | 180 | 1.6 | 11.3 | 0.00 | 0.00 | 0.00 | 54 | 1016.3 |
| 20260507114146 | 4 | 173 | 4.8 | 11.3 | 0.00 | 0.00 | 0.00 | 54 | 1016.1 |
| 20260507113643 | 4 | 187 | 3.2 | 9.7 | 0.00 | 0.00 | 0.00 | 53 | 1016.3 |
| 20260507113139 | 4 | 187 | 4.8 | 19.3 | 0.00 | 0.00 | 0.00 | 53 | 1015.8 |
| 20260507112638 | 4 | 183 | 6.4 | 9.7 | 0.00 | 0.00 | 0.00 | 54 | 1016.0 |
| 20260507112134 | 3 | 202 | 3.2 | 9.7 | 0.00 | 0.00 | 0.00 | 55 | 1016.1 |
| 20260507111631 | 3 | 212 | 4.8 | 11.3 | 0.00 | 0.00 | 0.00 | 55 | 1016.1 |
| 20260507111128 | 3 | 212 | 6.4 | 12.9 | 0.00 | 0.00 | 0.00 | 55 | 1016.0 |
| 20260507110624 | 3 | 173 | 9.7 | 16.1 | 0.00 | 0.00 | 0.00 | 55 | 1016.0 |
| 20260507110121 | 3 | 207 | 4.8 | 12.9 | 0.00 | 0.00 | 0.00 | 55 | 1016.0 |
| 20260507105618 | 3 | 194 | 8.0 | 16.1 | 0.00 | 0.00 | 0.00 | 55 | 1016.1 |
| 20260507105113 | 3 | 191 | 8.0 | 12.9 | 0.00 | 0.00 | 0.00 | 56 | 1016.4 |
| 20260507104611 | 3 | 181 | 8.0 | 11.3 | 0.00 | 0.00 | 0.00 | 57 | 1016.1 |
| 20260507104107 | 3 | 174 | 6.4 | 14.5 | 0.00 | 0.00 | 0.00 | 57 | 1016.2 |
| 20260507103603 | 3 | 195 | 6.4 | 11.3 | 0.00 | 0.00 | 0.00 | 57 | 1016.1 |
| 20260507103100 | 3 | 213 | 6.4 | 11.3 | 0.00 | 0.00 | 0.00 | 58 | 1016.0 |
| 20260507102557 | 3 | 159 | 9.7 | 12.9 | 0.00 | 0.00 | 0.00 | 58 | 1016.2 |
| 20260507102053 | 3 | 177 | 9.7 | 9.7 | 0.00 | 0.00 | 0.00 | 58 | 1016.2 |
| 20260507101548 | 3 | 205 | 6.4 | 12.9 | 0.00 | 0.00 | 0.00 | 58 | 1016.2 |
| 20260507101045 | 3 | 183 | 8.0 | 12.9 | 0.00 | 0.00 | 0.00 | 59 | 1016.3 |
| 20260507100542 | 3 | 225 | 3.2 | 12.9 | 0.00 | 0.00 | 0.00 | 60 | 1016.7 |
| 20260507100041 | 3 | 183 | 8.0 | 8.0 | 0.00 | 0.00 | 0.00 | 60 | 1016.4 |
| 20260507095538 | 3 | 183 | 8.0 | 14.5 | 0.00 | 0.00 | 0.00 | 59 | 1016.5 |
| 20260507095035 | 3 | 248 | 3.2 | 12.9 | 0.00 | 0.00 | 0.00 | 60 | 1016.5 |
| 20260507094531 | 3 | 149 | 6.4 | 12.9 | 0.00 | 0.00 | 0.00 | 59 | 1016.4 |
| 20260507094028 | 3 | 191 | 8.0 | 14.5 | 0.00 | 0.00 | 0.00 | 60 | 1016.7 |
| 20260507093525 | 3 | 171 | 4.8 | 9.7 | 0.00 | 0.00 | 0.00 | 61 | 1016.5 |
| 20260507093024 | 3 | 181 | 11.3 | 14.5 | 0.00 | 0.00 | 0.00 | 60 | 1016.5 |
| 20260507092520 | 3 | 199 | 8.0 | 12.9 | 0.00 | 0.00 | 0.00 | 61 | 1016.5 |
| 20260507092017 | 3 | 185 | 8.0 | 9.7 | 0.00 | 0.00 | 0.00 | 61 | 1016.8 |
| 20260507091514 | 2 | 176 | 6.4 | 9.7 | 0.00 | 0.00 | 0.00 | 62 | 1016.5 |
| 20260507091010 | 2 | 185 | 6.4 | 12.9 | 0.00 | 0.00 | 0.00 | 63 | 1016.4 |
| 20260507090505 | 2 | 197 | 9.7 | 11.3 | 0.00 | 0.00 | 0.00 | 63 | 1016.5 |
| 20260507090002 | 2 | 182 | 4.8 | 11.3 | 0.00 | 0.00 | 0.00 | 64 | 1016.5 |
| 20260507085500 | 2 | 158 | 8.0 | 12.9 | 0.00 | 0.00 | 0.00 | 64 | 1016.5 |
| 20260507084956 | 2 | 180 | 12.9 | 14.5 | 0.00 | 0.00 | 0.00 | 64 | 1016.8 |
| 20260507084453 | 2 | 181 | 6.4 | 14.5 | 0.00 | 0.00 | 0.00 | 65 | 1016.3 |
| 20260507083950 | 2 | 124 | 3.2 | 14.5 | 0.00 | 0.00 | 0.00 | 66 | 1016.5 |
| 20260507083446 | 2 | 181 | 8.0 | 11.3 | 0.00 | 0.00 | 0.00 | 67 | 1016.5 |
| 20260507082943 | 2 | 191 | 6.4 | 11.3 | 0.00 | 0.00 | 0.00 | 68 | 1016.4 |
| 20260507082439 | 2 | 178 | 6.4 | 11.3 | 0.00 | 0.00 | 0.00 | 69 | 1016.8 |
| 20260507081935 | 2 | 186 | 6.4 | 12.9 | 0.00 | 0.00 | 0.00 | 70 | 1016.7 |
| 20260507081432 | 2 | 183 | 4.8 | 14.5 | 0.00 | 0.00 | 0.00 | 69 | 1016.8 |
| 20260507080929 | 2 | 170 | 6.4 | 9.7 | 0.00 | 0.00 | 0.00 | 68 | 1017.4 |
| 20260507080425 | 3 | 180 | 3.2 | 11.3 | 0.00 | 0.00 | 0.00 | 66 | 1016.9 |
| 20260507075920 | 3 | 179 | 8.0 | 14.5 | 0.00 | 0.00 | 0.00 | 66 | 1017.0 |
| 20260507075417 | 3 | 160 | 8.0 | 11.3 | 0.00 | 0.00 | 0.00 | 67 | 1017.1 |
| 20260507074914 | 2 | 210 | 6.4 | 11.3 | 0.00 | 0.00 | 0.00 | 69 | 1017.3 |
| 20260507074410 | 2 | 218 | 9.7 | 11.3 | 0.00 | 0.00 | 0.00 | 70 | 1017.1 |
| 20260507073908 | 2 | 182 | 4.8 | 11.3 | 0.00 | 0.00 | 0.00 | 71 | 1017.4 |
| 20260507073404 | 2 | 180 | 4.8 | 12.9 | 0.00 | 0.00 | 0.00 | 71 | 1017.6 |
| 20260507072901 | 2 | 184 | 6.4 | 12.9 | 0.00 | 0.00 | 0.00 | 72 | 1017.5 |
| 20260507072359 | 2 | 214 | 6.4 | 11.3 | 0.00 | 0.00 | 0.00 | 73 | 1017.4 |
| 20260507071856 | 2 | 157 | 4.8 | 11.3 | 0.00 | 0.00 | 0.00 | 73 | 1017.5 |
| 20260507071353 | 2 | 219 | 4.8 | 9.7 | 0.00 | 0.00 | 0.00 | 75 | 1017.4 |
| 20260507070849 | 2 | 180 | 4.8 | 9.7 | 0.00 | 0.00 | 0.00 | 77 | 1017.6 |
| 20260507070347 | 2 | 205 | 6.4 | 9.7 | 0.00 | 0.00 | 0.00 | 77 | 1017.4 |
| 20260507065844 | 2 | 180 | 3.2 | 8.0 | 0.00 | 0.00 | 0.00 | 77 | 1017.4 |
| 20260507065340 | 2 | 180 | 4.8 | 11.3 | 0.00 | 0.00 | 0.00 | 76 | 1017.3 |
| 20260507064837 | 2 | 170 | 3.2 | 14.5 | 0.00 | 0.00 | 0.00 | 76 | 1017.5 |
| 20260507064336 | 2 | 180 | 6.4 | 11.3 | 0.00 | 0.00 | 0.00 | 77 | 1017.6 |
| 20260507063833 | 2 | 192 | 3.2 | 8.0 | 0.00 | 0.00 | 0.00 | 78 | 1017.1 |
| 20260507063330 | 2 | 184 | 3.2 | 8.0 | 0.00 | 0.00 | 0.00 | 78 | 1017.6 |
| 20260507062826 | 2 | 180 | 6.4 | 9.7 | 0.00 | 0.00 | 0.00 | 78 | 1017.6 |
| 20260507062324 | 2 | 194 | 8.0 | 9.7 | 0.00 | 0.00 | 0.00 | 78 | 1017.4 |
| 20260507061822 | 2 | 168 | 4.8 | 11.3 | 0.00 | 0.00 | 0.00 | 79 | 1017.6 |
| 20260507061319 | 2 | 196 | 1.6 | 8.0 | 0.00 | 0.00 | 0.00 | 80 | 1017.5 |
| 20260507060818 | 1 | 180 | 9.7 | 9.7 | 0.00 | 0.00 | 0.00 | 81 | 1017.5 |
| 20260507060314 | 1 | 168 | 4.8 | 8.0 | 0.00 | 0.00 | 0.00 | 82 | 1017.4 |
| 20260507055811 | 1 | 172 | 6.4 | 8.0 | 0.00 | 1.78 | 1.78 | 82 | 1017.8 |
| 20260507055306 | 1 | 210 | 3.2 | 8.0 | 0.00 | 1.78 | 1.78 | 83 | 1017.7 |
| 20260507054802 | 1 | 180 | 6.4 | 8.0 | 0.00 | 1.78 | 1.78 | 83 | 1017.5 |
| 20260507054259 | 1 | 172 | 4.8 | 8.0 | 0.00 | 1.78 | 1.78 | 83 | 1017.8 |
| 20260507053756 | 1 | 182 | 4.8 | 8.0 | 0.00 | 1.78 | 1.78 | 83 | 1018.1 |
| 20260507053254 | 1 | 157 | 6.4 | 8.0 | 0.00 | 1.78 | 1.78 | 83 | 1017.8 |
| 20260507052753 | 1 | 152 | 3.2 | 8.0 | 0.00 | 1.78 | 1.78 | 84 | 1018.2 |
| 20260507052249 | 1 | 180 | 3.2 | 4.8 | 0.00 | 1.78 | 1.78 | 84 | 1018.0 |
| 20260507051747 | 1 | 177 | 3.2 | 4.8 | 0.00 | 1.78 | 1.78 | 84 | 1018.1 |
| 20260507051243 | 1 | 139 | 3.2 | 4.8 | 0.00 | 1.78 | 1.78 | 84 | 1018.1 |
| 20260507050740 | 1 | 172 | 4.8 | 8.0 | 0.00 | 1.78 | 1.78 | 83 | 1018.1 |
| 20260507050237 | 1 | 218 | 6.4 | 9.7 | 0.00 | 1.78 | 1.78 | 83 | 1018.0 |
| 20260507045734 | 1 | 198 | 0.0 | 8.0 | 0.05 | 1.78 | 1.78 | 83 | 1018.1 |
| 20260507045230 | 1 | 150 | 3.2 | 4.8 | 0.05 | 1.78 | 1.78 | 82 | 1018.0 |
| 20260507044727 | 2 | 195 | 0.0 | 6.4 | 0.00 | 1.78 | 1.78 | 82 | 1018.2 |
| 20260507044224 | 2 | 159 | 3.2 | 6.4 | 0.00 | 1.78 | 1.78 | 82 | 1018.0 |
| 20260507043720 | 1 | 173 | 4.8 | 8.0 | 0.00 | 1.78 | 1.78 | 82 | 1018.0 |
| 20260507043217 | 2 | 156 | 3.2 | 4.8 | 0.00 | 1.78 | 1.78 | 82 | 1018.1 |
| 20260507042714 | 1 | 180 | 1.6 | 4.8 | 0.00 | 1.78 | 1.78 | 82 | 1018.2 |
| 20260507042208 | 1 | 169 | 6.4 | 8.0 | 0.00 | 1.78 | 1.78 | 81 | 1018.2 |
| 20260507041706 | 1 | 173 | 1.6 | 4.8 | 0.00 | 1.78 | 1.78 | 81 | 1018.2 |
| 20260507041202 | 2 | 157 | 4.8 | 4.8 | 0.00 | 1.78 | 1.78 | 81 | 1018.1 |
| 20260507040659 | 2 | 186 | 1.6 | 1.6 | 0.00 | 1.78 | 1.78 | 80 | 1018.3 |
| 20260507040155 | 2 | 187 | 1.6 | 4.8 | 0.00 | 1.78 | 1.78 | 79 | 1018.0 |
| 20260507035652 | 2 | 217 | 3.2 | 6.4 | 0.00 | 1.78 | 1.78 | 80 | 1017.8 |
| 20260507035148 | 2 | 220 | 0.0 | 4.8 | 0.00 | 1.78 | 1.78 | 80 | 1018.2 |
| 20260507034644 | 1 | 200 | 0.0 | 1.6 | 0.00 | 1.78 | 1.78 | 82 | 1018.0 |
| 20260507034142 | 1 | 237 | 1.6 | 1.6 | 0.00 | 1.78 | 1.78 | 84 | 1018.0 |
| 20260507033641 | 1 | 90 | 0.0 | 1.6 | 0.00 | 1.78 | 1.78 | 84 | 1018.0 |
| 20260507033137 | 1 | 98 | 0.0 | 0.0 | 0.00 | 1.78 | 1.78 | 84 | 1017.8 |
| 20260507032635 | 1 | 103 | 0.0 | 1.6 | 0.00 | 1.78 | 1.78 | 83 | 1018.1 |
| 20260507032130 | 1 | 66 | 0.0 | 0.0 | 0.00 | 1.78 | 1.78 | 82 | 1018.1 |
| 20260507031627 | 1 | 106 | 3.2 | 3.2 | 0.00 | 1.78 | 1.78 | 80 | 1018.3 |
| 20260507031124 | 1 | 157 | 0.0 | 3.2 | 0.00 | 1.78 | 1.78 | 80 | 1018.0 |
| 20260507030621 | 2 | 106 | 0.0 | 3.2 | 0.00 | 1.78 | 1.78 | 79 | 1017.8 |
| 20260507030119 | 2 | 135 | 3.2 | 4.8 | 0.00 | 1.78 | 1.78 | 79 | 1017.7 |
| 20260507025616 | 2 | 138 | 4.8 | 4.8 | 0.00 | 1.78 | 1.78 | 78 | 1018.0 |
| 20260507025113 | 2 | 135 | 4.8 | 4.8 | 0.00 | 1.78 | 1.78 | 79 | 1017.7 |
| 20260507024611 | 2 | 117 | 1.6 | 3.2 | 0.00 | 1.78 | 1.78 | 78 | 1018.1 |
| 20260507024108 | 2 | 159 | 4.8 | 4.8 | 0.00 | 1.78 | 1.78 | 78 | 1017.8 |
| 20260507023603 | 2 | 107 | 3.2 | 3.2 | 0.00 | 1.78 | 1.78 | 76 | 1018.0 |
| 20260507023101 | 2 | 120 | 1.6 | 9.7 | 0.00 | 1.78 | 1.78 | 76 | 1017.8 |
| 20260507022557 | 2 | 161 | 3.2 | 6.4 | 0.00 | 1.78 | 1.78 | 75 | 1017.8 |
| 20260507022052 | 2 | 144 | 3.2 | 4.8 | 0.00 | 1.78 | 1.78 | 74 | 1018.0 |
| 20260507021549 | 2 | 158 | 6.4 | 8.0 | 0.00 | 1.78 | 1.78 | 73 | 1017.6 |
| 20260507021045 | 3 | 148 | 4.8 | 9.7 | 0.00 | 1.78 | 1.78 | 72 | 1017.8 |
| 20260507020543 | 3 | 168 | 4.8 | 6.4 | 0.00 | 1.78 | 1.78 | 71 | 1017.7 |
| 20260507020039 | 3 | 107 | 3.2 | 8.0 | 0.00 | 1.78 | 1.78 | 71 | 1017.5 |
| 20260507015538 | 3 | 154 | 3.2 | 9.7 | 0.00 | 1.78 | 1.78 | 69 | 1017.5 |
| 20260507015035 | 3 | 142 | 4.8 | 8.0 | 0.00 | 1.78 | 1.78 | 68 | 1017.7 |
| 20260507014531 | 3 | 140 | 4.8 | 6.4 | 0.00 | 1.78 | 1.78 | 66 | 1017.8 |
| 20260507014027 | 4 | 169 | 1.6 | 9.7 | 0.00 | 1.78 | 1.78 | 66 | 1017.7 |
| 20260507013524 | 5 | 157 | 1.6 | 6.4 | 0.00 | 1.78 | 1.78 | 65 | 1017.8 |
| 20260507013021 | 5 | 143 | 4.8 | 6.4 | 0.00 | 1.78 | 1.78 | 64 | 1017.8 |
| 20260507012519 | 5 | 177 | 6.4 | 9.7 | 0.00 | 1.78 | 1.78 | 63 | 1017.7 |
| 20260507012015 | 5 | 180 | 3.2 | 4.8 | 0.00 | 1.78 | 1.78 | 62 | 1017.8 |
| 20260507011512 | 5 | 173 | 8.0 | 11.3 | 0.00 | 1.78 | 1.78 | 61 | 1018.1 |
| 20260507011008 | 5 | 142 | 3.2 | 6.4 | 0.00 | 1.78 | 1.78 | 63 | 1018.1 |
| 20260507010503 | 5 | 172 | 4.8 | 9.7 | 0.00 | 1.78 | 1.78 | 62 | 1017.7 |
| 20260507005959 | 5 | 163 | 4.8 | 8.0 | 0.00 | 1.78 | 1.78 | 60 | 1018.1 |
| 20260507005457 | 5 | 194 | 1.6 | 9.7 | 0.00 | 1.78 | 1.78 | 61 | 1018.1 |
| 20260507004953 | 5 | 160 | 1.6 | 4.8 | 0.00 | 1.78 | 1.78 | 60 | 1018.2 |
| 20260507004450 | 5 | 125 | 4.8 | 9.7 | 0.05 | 1.78 | 1.78 | 59 | 1018.2 |
| 20260507003948 | 6 | 33 | 0.0 | 4.8 | 0.05 | 1.78 | 1.78 | 60 | 1018.3 |
| 20260507003442 | 6 | 139 | 3.2 | 4.8 | 0.05 | 1.75 | 1.75 | 57 | 1018.2 |
| 20260507002938 | 5 | 170 | 4.8 | 9.7 | 0.05 | 1.75 | 1.75 | 61 | 1018.2 |
| 20260507002435 | 6 | 132 | 3.2 | 8.0 | 0.00 | 1.75 | 1.75 | 59 | 1018.3 |
| 20260507001931 | 6 | 96 | 1.6 | 8.0 | 0.05 | 1.75 | 1.75 | 60 | 1018.3 |
| 20260507001428 | 5 | 96 | 3.2 | 8.0 | 0.13 | 1.75 | 1.75 | 60 | 1018.2 |
| 20260507000926 | 5 | 216 | 0.0 | 8.0 | 0.00 | 1.73 | 1.73 | 59 | 1018.2 |
| 20260507000421 | 5 | 180 | 4.8 | 11.3 | 0.05 | 1.73 | 1.73 | 61 | 1018.5 |
| 20260506235917 | 5 | 131 | 1.6 | 16.1 | 0.00 | 1.73 | 1.73 | 62 | 1018.4 |
| 20260506235415 | 5 | 237 | 12.9 | 14.5 | 0.00 | 1.73 | 1.73 | 59 | 1018.3 |
| 20260506234910 | 5 | 152 | 8.0 | 8.0 | 0.05 | 1.73 | 1.73 | 62 | 1018.4 |
| 20260506234408 | 5 | 97 | 4.8 | 8.0 | 0.05 | 1.73 | 1.73 | 62 | 1018.2 |
| 20260506233905 | 5 | 197 | 6.4 | 11.3 | 0.00 | 1.70 | 1.70 | 61 | 1018.4 |
| 20260506233401 | 5 | 151 | 8.0 | 11.3 | 0.05 | 1.70 | 1.70 | 62 | 1018.3 |
| 20260506232858 | 5 | 175 | 8.0 | 11.3 | 0.13 | 1.70 | 1.70 | 61 | 1018.3 |
| 20260506232354 | 5 | 167 | 6.4 | 11.3 | 0.13 | 1.70 | 1.70 | 62 | 1018.4 |
| 20260506231850 | 5 | 206 | 4.8 | 14.5 | 0.05 | 1.70 | 1.70 | 64 | 1018.4 |
| 20260506231348 | 5 | 159 | 0.0 | 11.3 | 0.05 | 1.68 | 1.68 | 64 | 1018.4 |
| 20260506230845 | 5 | 129 | 4.8 | 8.0 | 0.13 | 1.68 | 1.68 | 65 | 1018.3 |
| 20260506230342 | 5 | 135 | 3.2 | 8.0 | 0.13 | 1.68 | 1.68 | 63 | 1018.4 |
| 20260506225838 | 5 | 315 | 0.0 | 9.7 | 0.18 | 1.65 | 1.65 | 63 | 1018.5 |
| 20260506225336 | 5 | 152 | 8.0 | 8.0 | 0.13 | 1.65 | 1.65 | 63 | 1018.8 |
| 20260506224833 | 4 | 127 | 4.8 | 17.7 | 0.18 | 1.63 | 1.63 | 65 | 1018.5 |
| 20260506224330 | 5 | 221 | 6.4 | 17.7 | 0.13 | 1.60 | 1.60 | 61 | 1018.8 |
| 20260506223826 | 3 | 147 | 4.8 | 8.0 | 0.13 | 1.60 | 1.60 | 66 | 1018.9 |
| 20260506223321 | 3 | 168 | 1.6 | 14.5 | 0.13 | 1.57 | 1.57 | 68 | 1019.0 |
| 20260506222819 | 4 | 237 | 0.0 | 12.9 | 0.18 | 1.57 | 1.57 | 67 | 1018.8 |
| 20260506222313 | 3 | 166 | 4.8 | 9.7 | 0.18 | 1.55 | 1.55 | 65 | 1019.1 |
| 20260506221807 | 3 | 180 | 3.2 | 6.4 | 0.13 | 1.55 | 1.55 | 66 | 1019.0 |
| 20260506221304 | 3 | 26 | 0.0 | 8.0 | 0.18 | 1.52 | 1.52 | 69 | 1019.1 |
| 20260506220801 | 3 | 123 | 6.4 | 9.7 | 0.18 | 1.50 | 1.50 | 68 | 1019.4 |
| 20260506220256 | 4 | 204 | 3.2 | 3.2 | 0.18 | 1.50 | 1.50 | 67 | 1019.4 |
| 20260506215753 | 3 | 100 | 4.8 | 6.4 | 0.18 | 1.47 | 1.47 | 67 | 1019.4 |
| 20260506215249 | 3 | 95 | 3.2 | 4.8 | 0.18 | 1.45 | 1.45 | 71 | 1019.3 |
| 20260506214745 | 3 | 18 | 3.2 | 6.4 | 0.18 | 1.45 | 1.45 | 70 | 1019.4 |
| 20260506214242 | 3 | 117 | 4.8 | 6.4 | 0.18 | 1.42 | 1.42 | 72 | 1019.3 |
| 20260506213740 | 2 | 90 | 0.0 | 6.4 | 0.13 | 1.40 | 1.40 | 70 | 1019.5 |
| 20260506213232 | 3 | 103 | 1.6 | 8.0 | 0.23 | 1.40 | 1.40 | 72 | 1019.4 |
| 20260506212729 | 3 | 102 | 4.8 | 6.4 | 0.23 | 1.37 | 1.37 | 72 | 1019.4 |
| 20260506212224 | 3 | 100 | 8.0 | 8.0 | 0.18 | 1.35 | 1.35 | 72 | 1019.7 |
| 20260506211720 | 3 | 354 | 0.0 | 3.2 | 0.18 | 1.32 | 1.32 | 71 | 1019.4 |
| 20260506211216 | 2 | 42 | 0.0 | 8.0 | 0.23 | 1.32 | 1.32 | 74 | 1019.7 |
| 20260506210713 | 2 | 185 | 0.0 | 4.8 | 0.18 | 1.30 | 1.30 | 75 | 1019.8 |